Theta_e
311 315 317 317 317 316 315 313 314 317 317 318 318 321 322 320 319 316 316 314 308 313 318 315 316 318 317 314 306 303 305 303 301 301 300 300 300 300 300 301 301 302 302 303 304 305 306 306 306 306 306 306 307 307 307 307 307 307 307 308 308 309 311 312 313 315 316 317 318 318 318 318 318 319 318 318 319 318 319 319 319 320 321 322 322 321
311 316 318 318 315 314 315 312 311 313 314 314 315 316 317 317 317 314 313 314 309 312 318 314 315 318 316 312 304 302 303 302 301 300 299 299 299 299 300 300 301 301 302 303 304 304 305 305 305 306 306 306 307 307 307 307 307 307 307 307 307 307 307 308 308 309 310 311 312 312 314 315 316 316 317 317 317 316 317 318 318 318 319 319 319 319
314 317 318 314 311 311 314 312 311 312 312 313 313 314 316 316 317 317 314 313 310 312 319 317 315 317 315 308 303 301 301 300 300 300 299 299 299 299 300 300 301 302 303 304 304 304 305 305 305 305 306 306 306 306 306 306 306 306 306 306 307 306 307 307 307 307 307 307 308 309 311 312 312 312 313 315 315 314 315 316 316 316 317 318 318 318
318 321 316 310 310 312 315 314 313 313 312 314 315 314 318 316 317 322 319 315 313 311 315 316 314 316 312 306 303 301 300 299 299 299 299 299 300 300 300 301 302 303 303 304 304 304 304 304 305 305 305 305 305 305 305 305 305 305 305 305 305 306 306 306 306 306 306 306 307 307 308 309 309 310 310 310 310 310 310 311 311 312 312 313 314 314
321 320 311 309 313 314 315 315 315 315 315 317 317 315 318 317 317 322 318 315 316 313 313 313 316 322 318 313 308 303 301 300 299 299 299 299 299 299 300 301 302 303 303 303 304 304 304 304 304 304 305 305 305 305 305 305 305 305 305 305 305 305 305 305 305 305 305 306 306 306 306 306 307 307 307 306 306 305 305 305 305 305 306 306 307 308
319 314 309 313 316 314 314 317 317 317 317 321 321 318 317 318 319 319 315 315 319 319 314 312 319 331 327 318 311 305 304 302 300 298 298 298 298 299 300 301 301 302 303 304 304 304 304 304 304 304 304 305 305 304 304 304 304 304 304 304 304 304 304 304 304 304 305 305 305 305 305 305 305 305 305 304 304 304 304 303 303 303 303 303 303 303
317 312 312 317 318 315 316 318 318 317 318 321 321 318 315 315 316 317 315 316 321 321 313 310 317 327 328 323 312 305 306 303 300 299 298 298 299 299 300 300 301 302 303 304 304 304 304 304 304 304 304 304 304 304 304 304 304 304 304 304 304 304 303 303 303 303 304 304 304 304 304 304 304 304 304 303 303 302 302 302 302 302 302 302 302 302
316 313 313 316 317 318 317 319 318 315 320 323 318 316 318 316 316 318 317 317 320 319 316 316 316 318 323 321 310 305 307 304 302 301 298 297 298 299 300 300 301 302 303 303 303 304 304 304 304 304 304 304 303 303 303 303 303 303 303 303 303 303 303 303 303 303 303 303 303 303 303 303 303 302 302 301 301 300 300 301 301 300 300 301 301 301
313 315 317 316 316 317 318 321 318 315 320 322 314 314 317 317 319 319 318 319 316 314 320 323 315 314 323 320 308 305 309 307 305 304 300 298 298 299 299 300 301 302 303 303 303 304 304 304 304 303 303 303 303 303 303 303 303 302 302 302 302 302 302 302 302 302 302 302 302 302 302 302 301 300 300 299 299 299 299 299 299 299 299 299 299 299
311 312 314 316 319 319 319 318 314 316 319 313 308 314 316 315 318 319 320 321 315 314 322 324 316 316 324 322 312 308 312 313 308 304 300 298 298 299 299 300 301 302 303 303 303 303 303 303 303 303 303 303 303 303 302 302 302 302 302 302 302 302 302 302 301 301 301 301 301 301 300 300 299 298 298 298 298 298 297 298 298 297 297 297 297 297
310 307 308 313 316 315 314 310 306 311 312 306 311 321 318 316 317 318 320 318 315 319 323 319 315 315 319 324 320 313 313 314 309 304 301 298 298 299 299 299 300 301 302 303 303 303 303 303 303 303 303 302 302 302 302 302 302 302 301 301 301 301 301 301 300 300 300 300 300 299 299 298 298 297 297 297 297 297 296 296 296 295 295 295 295 295
311 310 309 310 310 309 312 310 305 305 306 308 319 323 319 320 317 317 320 317 317 325 322 313 311 312 316 324 323 315 309 307 307 305 302 299 298 299 299 299 300 302 303 303 303 303 303 303 302 302 302 302 302 302 302 302 301 301 301 301 301 300 300 299 299 299 299 299 299 298 298 298 297 296 297 297 296 295 295 295 294 294 294 293 293 293
314 316 311 309 308 309 316 317 309 308 309 314 321 321 321 322 319 320 322 318 319 321 314 310 312 312 316 320 318 316 309 302 301 302 300 299 299 299 299 299 300 302 302 302 303 303 302 302 302 302 302 302 302 302 301 301 301 301 300 300 300 300 299 298 298 298 298 298 298 297 297 297 296 296 296 295 295 294 294 293 293 293 293 293 293 292
318 318 312 311 311 310 315 318 316 315 314 315 319 321 323 322 321 324 321 316 317 316 309 309 312 313 317 316 313 312 306 299 297 299 300 300 299 300 300 300 301 301 302 302 302 303 302 302 302 302 302 302 301 301 301 301 300 300 300 299 299 299 298 297 297 297 297 297 296 296 296 295 295 295 294 294 293 293 292 292 292 292 291 291 291 291
320 322 316 315 314 312 313 315 318 320 314 313 317 318 320 323 325 324 322 321 321 318 311 308 312 319 321 313 305 303 299 297 298 299 300 300 300 300 299 299 301 301 302 302 302 302 302 302 302 302 302 301 301 301 300 300 300 299 299 298 298 298 297 296 296 296 296 296 296 295 295 295 294 294 293 292 292 291 291 291 290 290 290 290 290 290
316 322 318 312 309 310 313 310 312 317 316 313 312 315 317 321 323 319 316 318 317 317 315 312 315 320 315 307 299 298 298 296 297 298 299 300 299 299 298 299 301 301 302 302 302 302 302 302 302 301 301 301 301 300 300 300 299 299 298 298 297 297 296 295 295 295 295 295 295 294 294 294 293 292 292 291 291 291 291 290 290 290 290 290 290 290
316 321 316 309 308 308 309 309 308 312 317 313 311 317 317 313 319 320 312 309 310 315 316 314 317 316 310 307 301 298 300 298 297 297 298 299 298 298 298 299 301 302 302 302 302 302 302 302 301 301 301 300 300 300 299 299 298 298 297 296 296 295 295 294 294 294 294 293 293 292 292 292 291 291 291 291 290 290 290 290 290 291 291 290 290 291
320 323 316 311 313 308 304 307 307 306 312 316 315 317 313 310 316 320 316 314 314 317 317 314 316 316 314 314 306 300 303 302 298 297 296 297 297 297 298 300 302 302 302 302 301 301 301 301 301 301 300 300 300 299 298 298 297 297 296 295 294 294 293 293 292 292 292 291 291 291 291 290 290 290 290 290 290 290 290 290 290 290 290 290 290 290
317 321 317 310 312 311 306 310 313 307 307 313 314 312 312 316 318 316 317 319 318 318 320 316 313 314 315 315 312 309 308 306 301 298 297 297 296 297 299 301 301 302 301 301 301 301 301 301 301 300 300 299 299 298 297 297 296 295 294 293 292 292 291 291 291 291 291 290 290 290 290 290 290 290 290 290 290 290 290 290 290 290 290 290 290 289
314 319 319 311 309 311 310 312 318 314 308 308 309 309 311 316 318 318 316 317 318 319 320 317 314 316 316 314 318 318 310 303 301 300 298 297 296 298 300 301 301 302 302 302 302 301 301 301 300 300 299 298 298 297 297 296 295 293 292 291 291 291 291 290 290 290 290 290 290 290 290 290 290 290 290 290 290 290 290 290 290 290 290 289 289 289
313 315 319 313 308 311 314 315 316 316 312 311 312 312 313 313 314 317 315 315 318 320 321 319 315 318 317 312 315 316 308 301 301 300 298 297 297 299 300 301 302 302 302 302 302 301 301 300 300 299 298 298 297 297 296 295 293 292 291 290 290 290 290 290 290 290 290 290 290 290 290 290 290 290 290 290 290 290 290 289 289 289 289 289 289 289
314 315 319 317 312 314 319 314 309 312 313 313 314 314 314 314 315 316 314 314 316 317 320 320 315 317 316 308 308 311 306 301 299 299 298 297 299 300 301 302 303 302 302 302 302 301 301 300 300 299 298 297 297 297 295 293 291 290 290 290 289 289 289 289 290 290 290 290 290 290 290 290 290 290 290 290 289 289 289 289 289 289 289 289 288 288
313 316 319 318 316 316 315 308 303 307 310 312 314 314 314 315 316 318 316 315 315 313 313 315 315 316 311 303 303 304 301 300 299 299 298 299 300 301 302 303 303 302 302 302 301 301 301 300 299 298 297 297 296 296 294 291 290 290 289 289 289 289 290 290 290 290 290 290 291 291 291 290 290 290 290 289 289 289 289 289 289 289 288 288 288 288
312 316 317 317 317 316 312 307 304 306 309 312 314 313 313 314 316 316 315 315 316 315 314 313 315 315 308 300 298 299 298 299 299 299 299 299 300 301 302 303 303 302 302 301 301 301 300 299 298 298 297 296 296 295 292 290 290 289 289 289 289 289 290 290 290 290 291 291 291 291 290 290 290 290 290 289 289 289 289 289 288 288 288 288 288 288
313 317 317 316 318 318 315 312 310 310 311 314 315 312 312 315 315 313 312 313 315 315 315 314 315 315 310 302 299 299 299 299 298 299 300 300 300 300 302 303 303 302 302 301 301 301 300 299 299 298 297 296 296 294 292 290 289 289 289 289 289 290 290 290 291 291 291 291 291 291 290 290 290 289 289 289 289 289 288 288 288 288 288 288 288 288
315 318 317 316 317 318 318 317 315 315 313 312 313 312 311 313 313 313 314 314 314 313 313 314 314 313 309 305 303 302 301 301 300 299 299 300 300 301 302 302 302 302 302 301 301 300 300 300 299 299 297 297 296 293 291 290 289 289 289 289 290 290 290 291 291 291 291 291 291 290 290 290 290 289 289 289 288 288 288 288 288 288 288 288 288 288
316 318 316 316 317 317 317 316 315 316 315 314 314 314 312 311 311 313 315 314 314 313 313 313 313 313 312 308 306 305 304 305 303 299 299 300 301 301 302 301 301 302 302 301 300 300 299 300 299 298 297 296 295 292 290 289 289 289 289 290 290 291 291 291 291 291 291 291 291 290 290 290 290 289 289 288 288 288 288 288 288 288 288 287 287 287
316 316 315 317 316 315 315 314 313 314 315 314 314 314 313 310 309 311 313 313 314 313 314 313 312 313 314 311 308 307 307 306 303 299 300 301 301 302 301 301 301 302 301 300 299 299 299 300 299 298 297 296 293 291 289 289 289 289 290 291 291 291 291 291 291 291 291 291 291 291 290 290 289 288 288 288 288 288 287 287 287 287 287 287 287 287
315 315 315 315 315 314 312 311 312 313 313 312 314 314 313 311 309 310 310 311 313 313 313 312 311 312 312 311 310 307 305 304 303 301 302 302 302 302 302 302 302 301 300 300 299 299 299 300 299 298 297 295 292 290 289 289 290 290 291 291 292 292 291 291 291 291 291 291 291 290 290 289 288 288 287 287 287 287 287 287 287 287 287 287 286 286
312 315 314 313 314 314 311 309 309 310 310 311 311 312 312 309 308 308 309 309 309 310 310 308 308 310 309 309 309 306 302 302 302 302 302 302 302 302 302 302 302 301 300 300 299 299 299 299 299 298 296 293 290 289 290 290 291 291 292 292 292 292 291 291 291 291 291 290 290 289 289 288 288 287 287 287 287 287 287 287 287 287 286 286 285 285
309 313 312 310 312 312 309 306 306 307 308 310 310 311 309 307 306 306 306 306 306 307 307 306 307 308 306 304 304 303 302 302 302 302 302 302 302 302 301 301 301 301 300 299 299 299 299 299 298 297 295 292 290 290 291 291 292 292 292 292 291 291 291 291 291 291 290 290 289 289 288 288 287 287 287 287 287 286 286 286 286 286 286 285 285 284
309 309 308 309 313 313 307 305 305 304 304 306 309 309 307 306 307 305 304 305 306 307 308 307 307 308 305 300 300 300 300 299 300 300 300 300 301 300 300 300 300 299 299 299 298 298 299 298 298 297 294 292 290 291 292 292 292 292 291 291 290 290 290 290 290 290 290 289 289 288 288 288 288 287 287 287 286 286 286 286 286 285 285 284 284 284
308 309 309 309 313 312 305 302 303 303 306 308 308 308 307 306 306 304 302 304 305 306 308 307 307 307 303 300 301 301 299 297 298 299 299 299 300 299 299 299 299 298 298 298 298 298 298 298 297 297 295 292 291 292 292 292 291 291 290 290 290 290 290 290 290 289 289 289 289 288 288 288 287 287 287 286 286 286 286 286 285 285 284 284 283 283
307 309 309 309 312 309 300 299 302 305 310 310 305 305 307 306 306 305 303 304 303 303 305 305 304 303 301 300 302 302 299 297 297 298 298 298 298 298 298 298 298 298 298 298 298 297 297 297 296 296 294 292 292 292 292 291 290 290 290 290 289 289 289 289 289 289 289 289 288 288 288 287 287 287 286 286 285 285 285 285 284 284 283 283 283 283
306 307 307 307 308 303 298 300 305 309 309 303 297 298 301 302 303 304 303 302 301 301 302 302 302 301 299 298 299 298 297 296 296 297 297 296 296 296 296 297 297 297 297 297 297 296 296 295 295 294 294 293 293 292 291 290 290 290 290 290 289 289 289 289 289 289 289 288 288 288 287 287 287 286 286 285 285 285 285 284 283 283 283 282 282 282
305 305 305 304 303 300 299 303 308 308 304 299 295 294 295 297 298 300 300 299 298 298 299 300 300 299 297 296 296 296 295 295 295 295 296 296 296 296 296 297 297 297 296 296 296 295 294 294 294 293 293 293 292 291 291 291 291 290 290 289 289 289 289 289 289 289 288 288 288 288 287 287 286 286 285 285 285 285 284 283 283 282 282 282 282 282
303 305 305 305 304 302 302 303 306 305 303 302 300 296 295 297 298 299 300 300 298 296 295 297 299 298 296 295 295 295 294 294 295 295 295 295 296 296 296 296 296 295 295 295 294 294 293 293 293 292 292 292 291 291 291 291 291 290 290 289 289 289 289 289 289 288 288 288 287 287 287 286 286 285 285 285 285 284 283 283 282 282 282 282 282 282
300 303 305 307 306 303 303 303 304 304 306 307 303 297 295 295 296 297 298 300 301 296 293 295 299 298 295 294 293 293 293 295 296 297 295 295 295 295 295 295 294 294 294 294 293 293 292 292 292 291 291 291 291 290 290 290 290 290 289 289 289 289 288 288 288 288 288 287 287 287 286 286 285 285 285 285 284 283 283 282 282 282 281 282 282 282
299 300 303 305 305 303 303 305 305 305 306 307 301 295 292 292 295 296 296 300 300 293 291 295 296 295 293 292 292 292 294 297 298 296 295 295 295 294 294 293 293 293 293 293 293 292 292 292 292 291 291 291 291 291 290 290 290 289 289 289 288 288 288 288 288 288 287 287 287 286 286 285 285 285 285 284 283 283 282 282 281 281 281 281 281 282
299 300 301 302 304 303 303 304 304 304 304 302 297 293 291 293 295 297 298 301 297 291 291 294 293 293 294 292 291 292 295 298 298 296 294 295 294 293 293 292 292 292 292 292 292 292 292 292 291 291 291 291 291 291 290 290 289 289 289 289 288 288 288 288 288 287 287 287 286 286 286 285 285 285 285 284 283 282 282 281 281 281 281 281 281 281
298 299 300 301 302 303 304 304 303 303 302 297 293 292 291 293 296 297 299 301 296 291 292 294 294 294 295 292 291 293 295 296 295 295 294 294 292 292 292 292 292 292 292 292 292 292 292 291 291 291 291 291 291 290 290 290 289 289 289 288 288 288 288 287 287 287 286 286 286 286 286 285 285 285 284 283 282 281 281 281 280 281 280 281 281 281
297 298 299 300 301 301 302 303 302 303 300 294 291 291 292 295 299 299 298 297 295 293 294 295 294 295 295 294 293 294 294 294 294 295 294 293 292 292 292 292 292 292 292 292 292 291 291 291 291 291 291 290 290 290 290 289 289 289 289 288 288 288 287 287 287 286 286 286 286 286 285 285 285 284 283 282 281 281 281 280 280 280 280 280 281 281
299 299 298 299 300 300 299 300 301 302 298 293 291 293 293 296 300 298 295 294 294 294 295 294 294 294 294 294 294 294 294 294 294 294 294 293 292 292 292 292 292 292 292 292 292 292 291 291 291 291 291 290 290 290 289 289 289 289 289 288 288 288 287 287 287 286 286 286 285 285 285 285 285 283 282 281 281 280 280 280 280 280 280 280 280 280
298 300 299 299 300 299 299 300 300 298 295 293 294 296 296 296 297 296 294 294 293 294 294 294 294 294 294 294 294 294 294 293 293 293 293 292 292 292 292 292 292 292 292 292 292 292 291 291 291 291 291 290 290 290 289 289 289 289 288 288 288 288 287 287 287 286 286 285 285 285 285 285 284 282 281 280 280 280 280 279 280 279 279 279 279 279
298 297 297 299 299 297 297 298 296 293 292 293 295 297 296 296 296 295 295 295 294 294 294 294 294 294 293 293 293 293 293 293 292 292 292 292 292 292 292 292 292 292 292 291 291 291 291 291 291 291 291 290 290 290 289 289 289 289 288 288 288 287 287 287 286 286 285 285 285 285 285 284 283 281 280 280 280 280 279 279 279 279 279 279 279 279
293 290 291 295 297 295 293 293 292 291 291 293 295 295 295 295 295 295 295 295 294 294 294 293 294 294 293 293 293 292 292 292 292 292 292 292 292 292 292 292 292 292 292 291 291 291 291 291 291 290 290 290 290 290 289 289 289 288 288 288 288 287 287 287 286 286 285 285 285 284 284 283 282 280 280 279 279 279 279 279 279 279 279 278 278 278
291 289 291 294 296 295 294 293 291 292 292 293 294 295 295 295 295 294 294 295 294 294 294 294 294 294 293 293 292 292 292 292 292 292 292 292 292 292 292 292 292 292 291 291 291 291 291 291 290 290 290 290 290 290 289 289 289 288 288 288 288 287 287 287 286 286 285 285 285 284 284 283 281 280 279 279 279 278 278 278 278 279 278 278 278 278
292 291 293 294 293 294 295 291 289 290 292 293 294 295 294 294 294 294 294 294 294 294 294 294 293 293 293 293 293 292 292 292 292 292 292 292 292 292 291 291 291 291 291 291 291 291 290 290 290 290 290 290 290 290 289 289 288 288 288 288 288 287 287 286 286 285 285 285 284 284 283 282 280 280 279 279 278 278 278 278 278 278 278 277 277 277
292 292 294 294 292 292 292 290 288 290 291 292 293 294 294 294 294 294 294 294 294 293 293 293 293 293 293 293 293 292 292 292 292 292 292 292 291 292 291 291 291 291 291 291 290 290 290 290 290 290 290 290 290 289 289 288 288 288 288 288 287 287 286 286 285 285 285 284 284 283 282 281 280 279 279 279 278 278 278 278 278 278 278 277 277 277
291 293 293 292 292 293 292 291 291 292 293 292 293 293 294 294 294 293 294 293 293 293 293 293 293 293 293 293 292 292 292 292 292 292 292 292 291 291 291 291 291 291 291 291 290 291 290 290 290 290 290 290 289 288 288 288 288 288 288 287 287 286 285 285 285 284 284 284 283 282 281 280 279 279 279 279 278 278 278 277 277 277 277 277 276 276
291 293 292 292 293 294 293 292 292 292 293 293 293 293 294 293 293 293 293 293 293 293 293 293 293 293 293 293 292 292 292 292 292 292 292 291 291 291 291 291 291 291 291 291 290 291 291 290 290 290 290 289 289 288 288 288 288 288 287 286 286 285 285 284 284 284 284 283 282 281 280 279 279 279 278 278 278 278 278 278 277 276 276 276 276 276
Wind_Speed
4 3 2 5 6 7 9 10 8 3 5 4 3 3 4 4 5 4 4 5 0 0 5 4 4 7 7 5 9 9 11 15 12 13 14 14 15 16 16 18 18 19 19 17 17 18 19 19 20 20 21 21 21 22 22 23 23 23 21 20 20 17 14 11 10 9 7 6 6 4 4 5 7 6 3 3 1 2 2 3 6 5 5 6 8 8
4 4 7 9 8 7 7 7 4 1 3 3 2 2 3 4 6 5 3 5 1 2 4 1 2 8 5 4 8 9 9 10 8 11 12 13 15 16 17 19 19 21 21 22 23 24 25 25 25 26 26 26 27 28 28 29 29 28 28 28 27 25 22 21 18 16 14 13 11 9 9 7 5 5 3 3 3 2 2 3 5 5 7 8 11 12
2 4 11 10 5 5 2 4 5 4 3 2 2 1 4 3 4 5 3 4 3 2 4 4 4 6 2 4 7 10 9 9 9 11 11 13 15 16 18 19 21 24 25 26 27 28 28 28 28 29 29 30 30 31 31 31 31 31 31 31 31 30 29 28 25 23 22 19 16 14 13 10 8 8 7 6 5 3 3 5 5 6 7 8 10 12
2 6 10 8 6 6 1 4 6 4 2 3 3 3 4 2 0 3 3 4 3 1 2 2 4 5 1 4 6 9 10 12 13 13 13 14 15 16 17 19 23 26 27 27 28 28 28 28 29 30 31 30 30 31 31 31 30 31 31 31 31 30 30 30 28 27 24 21 19 17 15 13 13 13 11 8 7 6 5 5 5 5 5 6 9 11
6 6 2 4 6 7 4 3 6 5 2 3 5 5 5 3 5 6 3 4 3 3 1 2 4 5 1 2 2 5 8 10 10 12 13 12 14 15 17 20 23 25 26 27 28 28 28 28 29 29 29 29 29 30 30 29 29 28 28 28 28 28 29 28 27 26 24 22 20 18 17 16 14 13 12 11 13 13 12 11 11 10 9 8 7 7
8 6 3 4 3 5 6 4 5 7 3 4 5 9 9 7 7 5 2 4 3 3 2 2 2 5 4 1 3 2 3 5 6 8 10 9 12 14 17 20 22 24 25 26 27 27 27 28 27 27 27 27 27 28 27 26 26 25 25 25 25 25 25 25 24 23 21 20 19 17 17 16 14 14 15 17 18 17 17 16 15 14 14 13 12 11
4 3 2 4 4 5 5 4 5 7 5 2 4 8 9 6 5 4 2 3 1 2 2 2 1 4 6 4 4 5 3 3 3 5 5 8 11 14 17 19 21 23 25 25 26 25 26 26 25 25 25 25 25 25 24 23 23 22 22 22 22 22 22 21 21 19 17 17 17 16 16 16 16 17 18 18 17 17 17 15 14 14 13 14 13 13
3 1 2 4 5 5 5 5 6 8 7 3 3 5 6 6 6 5 5 4 2 2 3 3 1 2 4 4 3 6 6 3 2 2 3 7 11 14 17 19 21 23 24 25 25 24 24 24 23 23 22 22 22 21 20 20 20 20 19 19 19 19 19 19 18 16 16 16 16 16 16 16 17 17 18 16 15 15 13 12 12 13 13 13 13 13
2 3 3 6 5 4 6 5 8 10 5 4 4 6 6 6 5 4 5 3 1 2 4 4 0 1 5 4 1 3 4 3 5 6 5 8 11 14 17 18 20 22 23 24 23 23 22 22 21 20 19 19 19 18 17 17 17 17 17 16 15 16 17 16 15 14 15 15 15 14 14 15 16 16 15 13 12 13 11 11 12 12 13 14 14 14
1 3 5 7 5 5 5 3 8 10 4 4 7 7 6 5 5 4 5 3 2 1 4 6 3 2 5 5 1 2 4 5 7 5 6 10 13 14 17 18 20 21 22 22 22 21 20 19 19 17 17 16 15 15 15 15 15 14 14 12 12 14 14 13 12 11 11 11 11 11 12 12 13 13 11 9 9 11 11 11 12 12 13 13 13 14
0 0 1 3 4 5 5 2 2 5 6 9 7 6 6 5 5 3 2 4 2 2 6 6 4 2 3 5 3 4 3 4 6 5 6 10 14 16 17 18 20 21 22 21 20 19 18 17 16 15 14 13 13 13 12 12 12 11 11 10 10 12 11 10 9 8 8 8 8 9 10 11 12 11 9 7 9 10 10 11 13 13 13 13 14 15
3 0 2 2 3 5 7 4 3 2 5 7 4 4 4 2 4 4 4 3 1 5 5 3 2 2 3 5 4 4 3 3 5 6 8 12 16 19 19 19 20 21 21 20 19 17 16 15 14 12 11 11 11 10 9 9 9 8 8 8 8 9 8 8 8 7 7 7 8 9 9 9 10 9 8 8 10 10 11 12 13 12 12 13 13 14
2 4 2 1 3 5 5 4 4 4 4 4 4 5 4 2 2 2 2 0 3 5 3 1 1 3 5 6 4 5 4 3 5 7 12 18 21 22 21 20 21 21 20 19 18 16 14 13 12 10 9 9 8 7 7 7 7 6 6 6 6 6 7 7 6 6 7 7 8 9 9 10 10 10 10 10 11 12 12 13 13 13 14 14 15 16
3 4 1 2 3 7 8 5 2 1 1 4 5 5 4 2 1 3 3 1 3 3 2 1 1 1 4 5 4 4 4 4 6 8 14 21 25 25 23 22 21 21 20 18 17 15 13 12 10 9 8 7 6 5 5 4 5 5 4 4 5 5 6 6 5 6 6 7 9 9 9 10 10 10 11 11 12 13 14 14 15 16 16 17 17 18
2 4 3 4 2 7 9 5 5 5 4 3 3 5 4 5 4 4 3 3 4 2 2 2 1 3 4 2 3 5 5 5 6 9 15 21 24 24 23 23 22 21 20 18 16 15 13 11 10 8 7 5 4 3 3 3 3 3 3 3 4 4 5 5 5 6 6 7 8 9 9 9 10 10 11 12 12 13 14 15 16 17 17 18 18 19
2 5 5 2 0 6 7 4 5 6 2 1 2 4 2 4 4 1 2 5 3 2 3 2 3 4 4 1 2 3 3 2 2 6 16 22 23 23 23 23 23 22 20 19 17 15 13 11 9 8 6 5 3 2 2 1 1 1 1 1 2 2 3 3 4 4 5 6 6 6 7 7 8 9 10 10 11 12 13 15 15 16 17 18 19 19
2 4 5 2 2 2 2 2 4 3 3 2 2 3 4 3 6 3 2 1 4 1 3 2 3 3 0 1 2 1 2 2 1 6 15 22 22 23 24 25 24 23 21 19 17 15 13 11 10 8 6 5 3 3 2 2 2 2 1 1 1 1 2 2 2 2 3 3 3 4 5 5 6 7 7 8 9 10 11 12 13 14 15 16 17 18
4 3 4 1 1 1 1 3 5 4 4 4 3 5 3 2 4 3 1 2 3 3 4 1 3 4 1 2 2 1 2 4 4 6 11 17 20 22 25 27 26 23 21 19 18 16 13 12 10 9 7 6 5 4 4 3 3 3 3 4 3 3 3 3 2 2 2 2 3 3 3 4 5 5 6 7 8 9 10 11 12 13 14 15 16 17
4 1 4 1 2 1 2 4 3 4 3 4 4 3 3 3 2 2 2 1 1 3 4 2 2 3 4 4 3 4 8 8 6 6 8 13 19 24 28 29 27 24 22 21 19 16 14 12 11 9 8 7 6 6 5 5 5 5 5 5 5 5 4 4 3 2 2 2 2 2 3 3 4 5 7 8 9 10 11 13 14 15 16 17 18 19
3 2 4 1 1 1 2 2 3 2 1 3 2 1 2 2 3 2 2 2 2 3 3 4 2 3 5 6 8 11 12 11 10 8 10 15 23 29 31 31 29 26 23 21 18 16 14 12 11 10 9 8 8 8 7 7 7 7 7 6 6 6 5 4 3 2 1 1 1 2 3 5 6 8 9 10 11 13 14 16 17 18 20 21 21 22
3 3 3 2 2 1 2 2 6 7 4 3 3 2 1 1 2 1 1 2 3 3 2 3 5 5 4 3 8 10 10 12 14 13 13 19 27 32 33 32 29 25 22 19 17 16 14 12 12 11 11 10 10 9 8 8 9 8 8 8 7 6 5 4 3 1 0 2 3 5 6 7 9 10 11 12 13 15 16 18 20 20 21 23 23 24
2 3 3 2 1 3 5 5 4 5 5 5 5 6 6 4 3 2 3 1 2 2 3 3 6 7 4 2 4 5 6 12 16 15 15 23 31 34 34 32 27 23 21 18 16 15 14 13 12 12 12 12 11 10 10 10 10 10 10 9 8 6 5 4 2 1 2 4 5 6 8 9 11 12 13 14 16 17 19 21 22 23 24 25 26 27
2 3 3 3 4 5 5 3 2 3 2 3 3 4 5 4 5 5 5 3 2 1 1 2 3 6 2 1 3 4 6 12 18 19 20 27 35 36 35 33 27 21 18 17 16 14 13 13 13 13 13 13 12 11 11 12 12 12 11 9 8 7 6 4 2 2 4 6 7 8 10 12 14 16 18 19 21 22 24 25 26 27 28 29 29 30
3 2 2 2 2 3 4 2 2 2 3 2 3 2 4 3 2 4 4 2 2 4 2 2 4 5 2 2 2 2 6 11 18 24 25 28 33 34 34 32 28 23 19 16 15 14 14 14 14 14 14 14 13 13 14 14 14 13 12 10 9 8 7 5 4 5 6 8 9 11 13 15 17 19 21 23 25 26 28 29 29 30 31 31 31 32
5 2 3 2 2 3 3 1 1 2 0 3 3 2 3 2 4 2 1 2 2 5 6 4 7 5 2 3 3 3 5 8 14 21 23 23 26 30 33 31 27 24 19 15 14 14 15 16 16 16 15 14 14 14 15 15 14 14 13 11 10 9 7 6 6 7 8 10 12 14 15 17 19 21 23 25 27 28 29 30 30 31 32 32 33 33
6 2 4 5 6 6 5 3 3 2 2 2 2 3 4 5 7 4 1 3 6 4 7 6 9 4 2 1 3 3 4 5 11 17 19 20 23 29 33 31 27 23 17 13 12 13 15 17 18 17 15 15 15 15 16 16 16 15 14 12 10 9 8 8 8 9 10 12 14 16 17 19 21 23 25 27 28 29 29 30 31 32 32 33 34 35
3 1 4 7 9 9 6 4 3 4 4 4 5 6 6 7 9 6 3 5 6 3 4 8 6 2 2 2 4 4 5 6 9 13 17 21 25 29 31 29 26 22 15 12 12 13 15 18 20 19 17 16 16 17 18 17 17 16 14 12 10 9 8 8 9 10 12 13 15 17 18 20 22 24 26 28 28 29 29 30 31 32 33 34 35 36
3 1 6 8 9 7 2 2 3 4 5 8 7 8 8 7 8 9 9 7 5 4 8 8 5 4 6 6 7 7 6 6 8 13 20 24 26 27 25 24 24 21 15 13 13 15 18 21 22 21 19 17 18 19 19 19 18 16 15 13 11 10 9 9 11 12 14 15 16 17 19 21 23 25 26 26 27 28 29 30 31 33 34 35 36 36
3 3 6 5 7 7 0 1 3 4 3 4 7 11 13 11 13 15 14 10 8 9 11 5 8 8 8 6 8 11 12 13 16 20 23 22 21 20 19 20 22 20 16 16 17 19 21 22 22 21 19 19 21 21 21 20 19 17 15 13 11 11 11 12 13 14 15 16 16 17 19 21 23 24 25 25 26 28 29 31 32 33 34 35 35 35
3 3 5 4 7 10 3 0 3 5 4 3 6 12 13 13 14 15 14 10 9 8 6 2 6 9 7 6 8 11 14 16 17 18 19 19 18 16 15 18 20 20 20 20 19 19 21 21 21 20 20 22 23 23 22 21 19 16 14 13 12 13 13 14 15 16 16 16 17 18 20 22 23 24 24 26 27 29 30 31 33 33 33 33 33 33
3 2 1 4 5 7 3 2 2 4 5 5 9 13 9 7 8 11 9 5 3 4 6 3 6 9 5 7 7 7 9 9 12 16 18 19 19 17 16 19 21 22 22 20 18 19 20 21 20 20 22 24 25 24 23 20 18 16 15 14 14 14 15 16 17 18 17 17 18 20 22 24 24 24 26 27 28 30 31 32 32 32 32 32 32 34
4 2 2 3 5 6 3 4 3 2 1 4 12 16 10 7 7 7 6 6 6 7 8 6 8 10 4 7 6 7 9 12 16 18 18 18 19 19 21 22 23 22 20 18 18 19 20 20 20 21 23 25 26 24 22 20 17 16 14 13 14 15 16 18 19 19 19 19 20 22 25 26 26 26 27 29 30 31 31 31 31 31 32 32 33 35
4 4 2 3 5 3 1 4 5 4 1 5 11 15 13 11 9 3 3 7 9 8 6 8 9 8 3 6 5 7 9 13 17 19 19 20 22 22 24 24 22 20 17 17 18 18 18 19 19 21 24 25 26 23 20 18 16 14 13 13 14 16 17 18 20 20 20 21 22 25 26 27 27 27 29 30 31 31 31 31 31 31 32 33 35 36
5 5 4 4 4 2 1 3 4 3 6 6 4 4 10 14 14 9 7 10 10 7 6 7 5 1 4 6 8 9 10 12 16 19 19 19 19 19 20 20 18 17 16 16 17 17 17 18 19 22 24 24 24 21 19 17 15 14 14 14 15 16 17 19 21 21 22 23 24 26 27 27 28 29 30 31 31 31 31 30 31 31 33 34 35 35
5 6 4 2 2 1 2 3 4 6 7 3 4 3 1 4 8 10 10 9 7 8 8 8 6 3 6 12 15 12 10 10 13 16 15 14 14 14 14 14 15 16 16 16 17 17 17 18 19 21 22 23 22 21 20 18 16 15 15 16 16 18 19 21 22 23 24 24 25 26 27 28 29 30 31 31 31 31 30 30 31 32 34 35 35 35
5 5 1 1 2 2 2 5 6 4 2 1 4 4 3 5 4 3 5 7 7 9 10 10 9 9 13 18 16 11 10 10 11 14 14 11 10 11 11 11 12 14 15 14 15 16 16 17 18 18 20 21 21 21 20 19 19 18 17 17 18 19 21 23 24 25 25 25 26 27 28 29 30 30 31 31 31 30 30 31 32 34 35 34 34 34
4 5 2 2 3 2 3 6 3 4 3 2 1 2 3 5 4 4 3 7 7 9 10 8 8 12 15 15 11 8 7 6 8 14 15 11 10 10 9 9 9 10 12 12 13 14 14 15 16 17 19 20 21 22 21 21 20 19 18 18 20 21 23 24 25 26 26 26 27 28 28 29 30 30 31 31 31 30 30 32 33 34 34 34 33 34
1 3 4 5 4 3 3 3 2 3 6 5 3 3 4 6 7 6 3 6 6 8 14 13 10 13 11 6 5 5 3 2 5 12 15 12 11 10 8 8 8 9 11 12 14 15 16 17 17 17 19 20 21 22 23 22 21 19 19 20 21 23 24 25 26 27 27 27 27 28 29 29 30 30 31 31 31 31 31 32 33 33 33 33 33 33
2 1 1 2 2 3 3 3 3 4 5 3 3 2 3 9 9 8 3 6 5 9 19 17 11 12 10 9 10 8 4 1 5 12 16 12 10 9 8 7 8 10 12 14 16 17 17 17 18 19 21 22 23 24 24 23 22 20 20 21 22 24 25 26 27 27 27 27 27 28 28 29 30 30 31 31 31 31 32 33 33 33 32 32 32 33
1 1 0 1 2 3 4 3 3 3 4 2 4 3 6 11 12 8 2 8 5 11 19 18 14 14 13 13 13 9 5 7 8 12 13 7 7 8 6 7 9 11 13 15 16 17 17 16 17 19 20 22 23 24 25 24 22 21 22 23 24 25 25 26 27 27 27 27 27 27 28 28 29 31 31 31 31 32 33 33 32 32 31 31 31 32
0 0 0 2 3 5 6 4 2 4 4 4 6 10 13 11 7 3 5 6 7 12 16 17 17 17 16 17 17 13 13 15 14 14 9 5 7 7 7 9 11 12 13 15 16 16 16 16 16 17 19 20 22 25 25 24 23 23 23 24 25 25 25 26 27 27 27 27 27 27 28 29 30 31 31 31 32 33 33 32 32 31 31 31 31 32
1 0 1 2 2 3 4 2 3 5 4 7 9 13 15 8 1 5 6 7 12 15 16 18 18 16 17 20 20 17 17 16 16 16 11 8 9 9 10 12 13 13 15 16 17 17 17 17 17 18 19 22 24 25 26 25 25 25 25 25 25 25 26 26 27 28 28 28 28 28 29 30 31 31 31 31 32 33 32 31 31 31 30 30 31 32
4 3 2 3 3 2 1 3 4 6 4 17 15 6 5 5 4 6 8 10 14 14 15 19 19 16 17 19 20 19 18 15 14 14 13 11 12 14 15 16 15 15 16 17 18 19 19 19 20 20 22 24 26 27 27 27 27 26 26 25 25 25 26 27 28 29 29 29 29 29 29 30 31 31 30 30 31 32 32 31 30 30 29 29 31 32
3 4 3 4 3 4 3 6 5 2 9 25 20 5 10 16 11 7 9 12 14 15 15 18 18 16 16 17 18 18 17 15 14 14 14 15 17 18 18 19 18 17 17 18 20 22 22 23 23 23 24 25 27 28 29 29 29 27 26 26 26 26 27 28 29 30 30 29 29 29 30 31 31 30 30 30 31 31 31 30 30 29 29 28 30 32
5 4 5 4 3 5 5 6 4 3 14 28 24 12 15 21 19 12 10 11 14 16 16 16 15 15 15 16 15 14 13 13 14 15 16 18 18 18 19 20 19 19 18 19 21 23 25 26 26 26 27 27 28 29 30 30 30 29 27 26 26 27 28 29 30 31 30 30 30 30 31 31 30 30 30 30 30 31 30 30 30 29 28 28 29 31
3 3 4 2 2 4 4 4 4 4 13 26 26 18 14 16 18 19 17 14 14 14 14 15 15 14 14 15 14 13 12 13 13 15 16 17 18 18 18 19 19 19 19 20 22 25 27 28 29 30 29 29 30 30 31 32 31 29 27 26 27 28 28 29 31 31 31 31 31 31 32 32 30 30 30 30 29 30 29 29 29 29 28 28 29 30
3 4 4 1 2 3 3 4 6 6 13 23 26 23 19 17 18 20 20 20 18 17 17 18 17 15 14 14 14 14 13 14 15 17 17 17 18 18 17 18 19 19 20 21 22 24 27 28 30 31 31 31 31 30 32 34 32 29 27 26 28 29 29 30 32 32 32 32 32 32 32 32 31 30 30 29 29 28 28 28 28 29 29 28 28 30
3 6 5 4 4 4 3 4 5 6 11 20 24 24 22 20 20 20 20 20 20 20 20 20 18 16 16 16 17 16 16 17 19 20 19 19 19 19 19 19 20 20 22 23 24 25 26 27 28 29 30 31 30 31 34 35 32 28 27 28 30 30 30 31 32 32 32 32 32 32 32 31 31 30 30 29 28 28 27 27 27 28 27 26 27 30
4 5 4 3 3 3 2 2 3 1 5 15 23 26 24 22 21 21 21 21 22 22 22 21 20 19 20 21 20 18 19 22 23 22 21 22 22 22 21 21 20 21 22 23 23 23 24 24 25 26 27 29 31 34 35 34 30 28 28 30 31 31 30 31 32 32 32 32 31 31 31 30 30 30 29 29 28 28 27 27 27 28 27 25 25 28
5 3 3 3 3 4 3 6 9 4 4 12 22 26 24 22 21 21 22 24 24 24 24 23 23 23 24 25 23 20 22 25 25 23 23 24 24 24 22 21 21 21 21 21 21 21 22 23 24 25 26 29 32 34 34 32 30 30 30 31 32 31 31 31 31 31 31 31 31 31 30 29 29 29 29 29 29 29 28 26 25 26 28 27 26 26
10 8 6 5 4 5 7 13 18 14 10 15 21 22 20 20 22 23 24 24 25 24 25 24 24 25 25 26 25 24 25 27 26 25 25 25 25 24 23 22 22 22 21 21 22 22 23 24 25 26 26 27 29 31 32 32 31 31 32 32 31 31 30 30 30 30 30 29 29 29 29 29 29 28 28 28 28 29 30 28 25 23 23 25 26 25
Wind_Direction
147 139 177 219 207 195 206 203 205 188 140 146 147 152 189 221 265 259 259 286 126 194 269 230 226 265 277 322 5 21 67 78 84 91 86 86 86 84 84 82 81 79 79 80 82 81 80 80 80 79 78 77 77 76 73 72 71 70 70 71 72 75 79 80 79 79 83 83 82 83 85 95 97 94 82 89 111 334 358 317 320 321 311 312 316 317
126 165 224 231 208 192 206 204 203 158 123 119 146 212 252 223 254 259 259 304 12 166 265 327 284 275 287 9 14 31 63 60 67 88 86 89 90 89 91 90 91 92 93 94 92 90 89 88 87 85 84 82 79 76 73 71 70 70 71 70 70 71 73 72 73 72 71 69 64 61 65 66 77 90 83 70 54 19 22 329 307 306 303 301 309 320
103 213 242 238 177 133 106 142 173 198 193 196 145 196 269 236 270 287 290 334 25 171 266 351 325 280 332 50 31 46 67 66 75 93 95 99 98 97 99 99 102 102 101 98 95 93 91 89 87 85 83 80 77 75 73 70 69 69 69 69 68 68 67 67 67 66 65 64 61 60 62 60 61 66 59 45 36 14 341 319 301 293 293 291 296 307
193 241 246 227 157 145 120 107 131 141 188 206 163 172 251 233 293 283 293 336 16 105 257 356 327 287 101 87 47 58 83 83 82 93 97 102 103 103 107 107 107 106 102 99 97 95 93 90 87 85 82 79 78 76 73 71 68 67 66 65 65 64 63 63 62 62 62 62 61 61 61 58 59 61 58 50 48 40 21 5 353 334 317 301 291 292
228 245 218 132 139 167 179 129 135 148 218 240 199 197 227 219 212 229 278 334 356 16 23 61 341 303 253 132 77 76 90 82 81 91 92 99 107 110 114 113 111 107 104 102 100 97 93 90 87 84 82 80 78 75 72 70 67 66 66 65 64 63 61 61 60 61 61 61 62 63 65 65 67 73 73 66 62 58 52 46 39 32 24 10 351 332
251 250 154 108 101 151 163 182 182 170 190 284 230 208 216 219 221 232 327 16 13 345 340 48 351 296 313 325 180 162 80 68 72 82 90 104 116 121 121 117 114 110 107 104 101 98 94 90 87 84 83 80 78 75 71 69 67 66 65 65 64 64 63 62 62 63 63 64 66 66 69 70 70 70 66 59 57 54 50 49 46 43 40 35 30 24
253 262 162 159 149 146 168 222 220 166 141 289 250 205 208 205 194 200 162 105 138 250 303 32 183 257 313 313 195 165 106 84 75 74 103 127 130 131 127 123 120 114 110 108 104 101 96 92 89 86 83 80 77 75 73 71 68 66 64 63 62 61 62 61 60 60 58 58 58 55 54 56 54 53 56 55 53 52 50 49 49 46 44 42 38 35
196 74 69 145 151 158 189 232 218 162 137 230 245 152 153 167 177 183 157 152 217 251 323 357 127 229 289 285 199 148 124 114 152 144 147 150 143 140 136 131 126 120 116 113 109 104 99 94 90 87 84 81 79 77 76 73 69 66 62 60 58 57 57 56 53 50 47 45 44 43 41 44 47 50 56 57 54 55 53 48 48 47 45 43 40 39
154 165 190 165 156 192 208 221 189 160 152 234 194 122 128 148 153 137 123 138 311 358 310 306 73 234 265 275 298 147 155 181 197 196 187 172 158 150 146 139 131 126 122 117 112 107 101 97 93 90 87 84 82 81 77 73 69 65 61 57 54 55 54 53 49 42 41 42 39 39 38 42 50 53 57 58 56 55 49 43 45 43 41 40 38 38
125 210 211 155 157 210 212 223 184 171 183 186 140 101 82 85 85 85 104 107 47 40 253 249 193 206 269 281 276 195 217 211 193 192 193 182 170 160 154 147 138 131 126 121 116 110 106 102 98 95 92 89 86 81 76 72 69 64 61 55 49 53 54 53 52 44 44 48 44 46 48 51 59 62 61 59 54 52 45 40 42 40 38 36 33 32
332 192 227 157 182 187 148 92 183 172 154 139 119 77 63 50 49 52 67 88 69 272 246 238 213 195 270 277 228 190 214 186 161 166 192 192 182 171 162 153 144 137 132 126 120 116 112 108 104 101 98 94 87 82 77 72 68 62 58 51 43 50 54 55 57 51 53 59 55 58 62 63 67 68 63 56 50 49 42 37 38 36 33 31 28 26
340 140 254 229 185 129 102 60 21 40 116 121 103 84 89 15 24 32 3 51 124 252 257 263 250 177 217 264 249 211 211 173 165 173 182 192 188 176 166 158 149 143 137 132 127 124 119 115 113 110 105 97 92 87 80 72 66 58 53 45 37 46 54 55 57 54 54 59 59 61 62 61 61 57 47 40 41 40 35 35 35 30 27 25 22 19
293 233 262 291 188 159 117 71 39 8 36 91 98 99 99 346 4 355 312 194 217 243 260 281 195 186 228 248 237 215 214 216 227 210 187 186 184 176 169 163 156 150 145 140 136 133 128 125 124 120 114 105 99 93 81 73 64 52 48 40 31 41 56 58 56 55 51 51 53 53 50 47 45 38 31 28 29 28 26 26 22 17 16 14 11 11
277 287 275 126 221 195 165 140 155 221 143 146 143 129 128 121 131 258 262 260 260 248 236 243 178 205 264 262 222 224 253 260 255 235 203 190 180 173 170 165 161 158 153 149 147 143 140 139 136 132 127 119 112 101 85 73 60 47 42 34 26 42 63 63 56 51 43 41 44 42 38 37 33 27 24 21 20 20 19 16 14 12 11 9 7 7
205 292 209 175 210 185 179 177 161 146 142 180 163 132 142 152 170 223 218 205 243 266 268 264 189 186 209 238 232 245 281 292 268 236 206 194 183 173 172 170 168 165 161 159 157 156 155 152 150 148 143 138 131 115 94 76 61 40 30 25 23 41 60 59 52 45 36 36 37 32 29 27 24 21 18 17 17 15 13 11 9 7 6 4 3 1
167 265 250 259 40 158 178 187 126 111 119 232 124 110 154 182 157 169 196 174 177 287 290 230 224 216 187 207 272 270 299 318 263 207 190 190 185 179 179 177 173 171 168 168 168 167 169 167 165 166 162 161 157 145 139 116 93 39 18 21 20 43 65 60 48 40 36 37 33 28 25 20 19 18 13 11 9 6 5 2 358 356 354 352 350 347
132 271 281 356 32 108 177 187 115 115 184 165 122 173 218 182 119 111 252 54 83 260 270 195 235 285 337 264 299 6 322 319 181 180 180 183 183 183 186 182 178 176 174 174 176 177 180 180 180 181 179 183 185 185 189 185 185 191 191 183 167 153 132 104 80 64 58 55 43 35 31 24 19 13 5 2 359 355 353 349 344 341 338 336 333 331
150 260 285 99 119 338 60 120 74 60 122 125 176 208 198 120 91 100 233 355 42 247 273 218 221 248 193 236 309 52 255 258 233 199 183 183 186 189 190 185 181 179 178 181 184 186 189 190 193 196 195 199 202 203 203 202 205 199 187 182 174 172 168 158 154 134 111 90 65 44 33 22 12 4 357 353 348 343 340 336 332 330 328 326 324 321
144 230 292 96 154 290 41 102 73 29 77 122 183 180 109 134 157 102 163 228 252 247 281 296 245 231 201 200 207 202 211 213 208 202 195 193 193 194 194 189 186 185 185 188 189 191 195 196 201 205 206 210 208 208 209 208 208 197 185 180 173 178 178 170 166 145 119 100 72 42 25 12 360 355 348 343 340 337 333 330 329 328 328 326 324 322
131 163 270 310 202 246 38 100 174 220 41 74 111 116 74 157 171 153 153 172 204 230 278 299 293 249 230 198 179 196 201 187 183 194 202 201 198 197 195 191 190 189 188 191 193 195 198 201 208 210 210 213 210 210 212 209 205 193 184 183 183 191 190 179 175 166 146 104 57 21 8 357 348 346 341 338 337 333 330 327 325 325 325 324 325 324
117 168 232 299 321 189 177 206 191 187 172 131 144 172 195 133 127 198 216 122 141 175 219 276 280 264 253 197 183 197 193 178 183 188 194 200 200 199 196 191 190 190 190 193 196 199 202 205 211 213 213 213 211 213 214 209 203 194 191 194 193 193 188 182 184 182 162 7 7 355 348 343 338 335 332 331 329 326 325 324 324 324 324 324 325 323
162 168 172 185 210 193 227 246 198 185 180 164 177 187 184 167 130 177 251 199 128 172 183 209 268 270 250 199 201 203 183 185 190 183 184 197 199 199 196 191 189 190 193 198 201 203 208 211 214 217 218 217 215 217 214 206 199 195 196 194 188 186 189 197 211 271 343 343 340 333 329 328 328 327 327 327 327 326 326 327 327 327 326 326 325 325
125 119 139 197 210 215 248 270 162 183 163 142 196 195 169 161 142 164 221 222 143 201 153 131 267 277 269 230 248 235 202 193 189 182 185 195 198 198 196 192 192 194 196 202 206 211 216 217 218 220 220 218 216 215 210 203 199 197 197 194 192 200 210 219 244 297 320 321 321 321 323 327 328 328 328 327 327 327 327 328 328 327 326 325 325 324
114 122 152 258 297 303 314 351 80 86 92 157 239 179 151 182 162 176 208 165 163 211 156 110 253 262 295 323 315 232 194 184 186 189 192 197 199 199 197 194 196 199 202 207 212 219 224 222 223 223 221 220 217 213 207 203 202 200 198 199 205 215 225 241 275 297 308 313 317 320 324 326 327 326 325 325 325 325 325 325 324 324 323 322 322 322
175 162 142 165 310 323 327 337 335 347 187 209 227 179 173 144 97 88 93 99 235 214 152 178 245 246 285 339 37 96 152 170 192 198 200 201 202 201 198 197 200 203 207 212 217 225 231 233 233 231 226 222 218 212 207 204 203 201 201 207 215 226 242 265 285 299 308 314 317 319 321 322 322 322 322 322 322 321 321 320 319 319 318 318 317 317
174 180 160 180 218 232 229 217 212 226 207 198 198 195 197 168 155 163 131 176 234 200 143 203 242 247 315 15 84 107 142 175 206 208 208 209 207 205 203 203 206 207 210 220 228 237 243 244 242 236 229 224 217 211 208 205 203 203 206 213 223 239 258 277 291 300 308 312 313 315 316 317 318 319 319 318 317 316 316 315 314 314 313 313 313 312
139 225 200 205 227 227 215 213 193 138 146 195 208 196 196 196 186 174 157 198 210 167 183 225 220 204 263 192 159 190 190 202 214 206 208 212 209 208 209 212 212 210 218 235 245 252 251 247 244 238 230 224 216 209 206 204 204 207 213 220 231 249 265 280 291 298 303 305 307 310 312 313 314 315 314 313 312 311 310 309 309 309 309 309 309 310
96 246 222 219 241 238 174 186 202 156 175 201 204 207 210 203 187 191 211 208 150 158 237 233 152 173 239 203 187 207 203 215 223 207 208 212 211 211 214 216 215 215 228 245 257 263 255 247 242 236 228 221 212 207 205 204 206 211 218 227 239 255 268 278 286 291 295 298 301 304 307 309 310 310 309 309 308 307 307 307 307 307 307 307 308 309
116 244 232 212 254 261 100 76 209 185 205 208 199 216 218 202 193 202 216 206 170 206 245 215 151 201 238 205 192 204 201 206 211 208 209 211 211 213 214 215 216 224 245 263 269 265 254 244 239 233 227 218 208 205 205 206 210 215 222 234 246 258 268 275 280 284 288 291 295 300 304 307 309 308 309 308 308 307 306 306 306 306 306 307 307 307
125 248 236 197 256 263 244 189 213 193 214 229 219 228 225 210 205 210 216 211 200 232 270 116 169 227 235 185 191 209 211 212 215 218 220 219 219 219 218 219 225 239 259 270 267 256 249 243 237 231 224 214 206 206 208 209 214 219 227 239 251 260 268 273 277 281 284 287 292 298 304 308 309 309 310 310 309 308 307 307 306 306 306 306 306 307
170 233 206 155 241 260 216 168 204 196 205 221 238 242 225 194 212 222 220 203 172 251 269 223 229 253 225 160 181 217 217 217 227 231 230 227 227 230 233 235 242 253 262 263 253 245 243 239 231 224 219 211 207 209 211 213 219 226 234 244 253 261 268 272 276 278 280 284 291 298 305 308 309 310 311 311 310 309 308 307 306 306 306 306 307 307
191 219 62 126 226 247 196 174 168 110 57 258 251 244 215 177 208 215 197 188 186 209 231 232 244 257 221 150 179 226 219 216 228 232 233 235 237 241 245 249 256 260 258 250 242 238 235 231 225 222 218 212 210 212 216 221 225 230 237 246 255 263 268 271 273 274 277 284 292 298 304 307 309 310 310 311 310 309 308 307 306 306 306 306 307 307
174 173 130 180 222 247 181 162 138 90 25 262 249 236 213 205 218 182 143 209 207 189 200 224 238 244 184 134 172 224 220 219 231 237 240 245 246 248 252 255 258 255 245 241 239 232 227 226 225 224 220 216 216 219 223 225 226 231 241 250 258 264 268 269 271 273 279 286 292 297 302 306 308 309 310 310 310 308 307 307 306 306 305 305 306 306
177 183 188 191 207 246 55 115 123 156 225 243 256 218 209 217 219 206 207 220 208 188 209 238 251 202 133 161 202 224 225 227 238 245 247 248 247 248 252 251 248 242 236 236 234 228 225 226 225 224 222 221 223 224 224 223 226 236 248 255 260 265 268 271 272 276 281 285 289 294 300 305 307 308 309 310 309 308 307 306 305 305 305 305 306 307
186 195 200 168 154 150 95 119 177 215 229 263 357 9 232 212 204 210 234 241 216 208 229 247 256 229 209 224 230 235 244 244 246 252 253 251 249 249 250 247 238 233 231 227 226 225 224 224 224 225 225 226 226 224 223 226 235 247 255 259 263 267 270 272 274 277 279 281 286 293 300 305 307 308 309 309 309 307 306 305 305 305 305 306 307 308
184 183 163 109 138 122 130 181 208 244 280 341 351 355 43 70 97 171 265 270 228 212 221 230 239 241 240 243 245 251 263 266 265 264 259 253 257 255 247 242 235 231 231 230 231 234 233 232 234 235 234 232 229 228 230 236 245 253 258 261 266 269 271 272 272 273 275 279 286 295 302 305 307 309 309 309 308 306 305 306 306 306 306 307 308 310
184 167 149 193 190 139 172 211 243 328 304 232 279 281 165 143 145 154 227 258 235 211 205 202 226 242 242 245 252 255 262 285 293 276 263 255 255 250 238 235 233 234 240 244 244 246 245 245 245 242 238 235 233 235 239 243 249 254 259 263 267 269 269 270 271 272 274 280 288 297 303 306 308 309 309 308 307 305 305 306 306 306 306 307 309 311
210 191 191 210 208 129 151 229 277 292 257 223 191 216 178 162 166 146 167 268 268 208 193 187 211 237 236 230 222 208 208 341 304 271 262 255 247 237 227 227 233 241 248 249 245 244 244 245 244 242 238 237 238 240 242 245 249 254 260 264 267 268 268 269 271 272 276 282 291 299 303 306 308 309 308 307 305 305 305 306 306 306 306 308 310 311
16 332 208 205 204 135 163 221 210 221 256 241 181 198 151 156 149 107 78 282 270 195 189 187 205 229 225 205 185 160 133 155 249 264 267 258 237 223 220 230 243 253 254 249 245 243 244 245 244 240 238 239 241 243 243 246 249 254 261 265 266 267 268 270 271 273 278 285 294 300 303 305 307 307 307 305 304 305 306 306 306 306 307 308 310 311
49 4 24 204 208 188 196 222 223 237 259 217 180 174 150 150 134 97 337 273 243 190 188 187 200 218 217 201 179 156 165 200 231 272 278 253 212 214 229 254 266 266 260 253 247 242 238 238 238 239 241 244 246 246 245 247 251 256 261 264 265 267 269 271 273 275 280 288 295 299 301 304 306 306 305 304 304 306 306 306 306 305 307 308 309 311
195 321 214 227 236 228 224 238 278 262 236 199 173 153 139 126 109 122 240 236 190 185 188 186 198 210 205 190 180 187 220 230 244 269 271 212 205 231 257 273 277 275 266 255 246 241 238 237 239 243 247 250 250 249 248 249 252 256 260 262 265 268 271 274 276 279 284 290 294 298 301 303 304 304 304 303 304 306 306 306 305 305 307 308 310 311
164 70 253 232 228 235 245 253 281 275 219 157 153 149 139 126 186 218 203 165 161 176 184 186 195 207 205 201 201 213 234 245 251 257 253 235 242 259 269 271 271 271 267 257 247 244 244 245 246 248 252 254 253 250 249 250 251 254 259 263 267 270 274 278 280 282 286 290 294 297 300 302 303 302 302 303 304 305 306 305 304 305 307 309 310 312
169 148 211 233 183 146 265 224 235 281 180 142 136 129 154 186 212 177 162 161 165 174 185 190 197 207 210 213 218 226 236 245 249 252 253 252 259 266 266 264 264 266 266 261 256 253 253 252 253 256 258 259 256 253 251 251 252 255 260 265 269 273 277 280 282 284 287 290 294 297 299 301 301 300 301 303 304 305 305 305 304 305 307 309 310 311
192 163 188 236 187 150 202 216 210 272 162 157 153 165 209 210 210 166 158 179 185 186 191 196 204 213 216 221 226 230 236 243 248 255 258 259 264 269 268 267 267 266 265 261 259 258 257 256 257 258 260 261 259 256 254 252 253 256 261 266 271 275 278 280 282 285 288 291 295 298 299 300 300 300 301 303 304 305 305 304 304 306 307 309 310 310
228 189 175 209 207 171 194 218 202 139 167 175 181 198 209 214 223 217 200 201 200 198 201 206 215 221 223 226 228 228 237 248 257 264 267 268 272 274 274 273 271 270 269 264 260 258 257 257 258 258 260 261 260 257 255 254 254 256 261 267 272 275 278 281 284 286 289 293 296 298 299 300 299 299 301 303 304 304 304 304 304 305 307 309 310 310
243 159 138 148 254 249 243 213 178 159 180 187 195 209 218 224 230 228 227 228 223 220 224 232 242 241 228 220 217 223 241 258 269 275 274 276 278 276 275 275 272 270 270 266 262 261 258 258 259 258 260 261 260 258 257 254 253 255 261 267 272 275 279 283 285 288 291 294 296 298 298 298 298 298 300 302 303 303 303 303 304 305 307 309 309 309
263 168 164 190 241 249 255 202 174 182 193 192 198 212 223 229 232 233 236 238 241 245 250 255 259 250 228 217 221 238 260 275 283 284 280 277 275 273 273 272 267 266 268 269 269 267 263 261 261 260 261 261 261 260 258 254 251 253 261 269 273 275 279 283 286 288 291 293 295 296 296 296 296 297 299 300 301 301 301 302 303 304 306 309 309 308
229 169 186 230 216 199 233 227 201 206 209 202 205 216 226 232 236 236 238 241 245 251 256 259 257 241 229 232 240 252 269 280 283 283 279 275 272 269 268 268 266 265 267 268 268 267 265 265 264 263 263 262 261 260 257 252 249 253 262 269 272 274 277 281 284 287 289 291 292 293 293 293 294 297 299 299 300 300 300 301 302 302 305 308 308 307
159 166 183 203 206 210 249 216 173 226 251 221 215 220 229 238 241 242 244 247 248 251 258 261 256 244 241 247 250 256 271 279 279 278 274 272 270 268 266 268 268 266 265 265 264 263 264 266 266 265 265 262 259 257 254 249 248 256 264 268 270 272 276 280 283 285 287 289 290 290 290 291 294 296 298 299 300 300 300 301 302 302 304 306 305 305
159 194 178 155 209 236 230 196 184 187 256 232 223 227 235 241 245 247 251 254 255 258 263 265 262 256 251 249 251 261 274 279 278 276 272 269 267 267 269 270 268 265 262 260 260 261 264 267 268 268 265 262 259 255 251 248 251 258 263 266 269 272 276 279 282 284 286 287 288 288 288 290 293 295 296 298 299 300 299 300 301 303 305 306 306 306
193 210 197 179 209 226 221 216 210 210 235 247 244 244 246 248 249 251 255 262 266 267 268 267 265 262 258 255 259 269 276 278 277 275 271 268 267 269 272 271 268 266 264 262 262 265 267 268 268 266 263 261 257 253 249 248 252 258 262 265 269 273 276 279 282 284 285 286 286 286 287 289 291 292 294 296 298 299 300 300 300 300 302 303 303 304